FW6381 Weather Reports


time (UTC)temp
C
wind
direction
speed
KPH
gust
KPH
rain 1hr
cm
rain 24hr
cm
rain mn
cm
humidity
%
barometer
mb
20260507113503 5 18 3.2 8.0 0.00 0.15 0.00 98 1013.5
20260507113004 5 19 3.2 8.0 0.00 0.15 0.00 98 1013.5
20260507112503 4 19 1.6 6.4 0.00 0.18 0.00 98 1013.3
20260507112004 4 19 0.0 1.6 0.00 0.18 0.00 98 1013.2
20260507111503 4 0 0.0 0.0 0.00 0.18 0.00 98 1013.1
20260507111003 4 0 0.0 0.0 0.00 0.18 0.00 98 1013.0
20260507110505 4 19 1.6 6.4 0.00 0.20 0.00 98 1012.7
20260507110005 3 19 1.6 6.4 0.00 0.20 0.00 98 1012.5
20260507105503 3 19 0.0 6.4 0.00 0.20 0.00 98 1012.6
20260507105003 3 0 0.0 0.0 0.00 0.23 0.00 98 1012.5
20260507104505 3 0 0.0 0.0 0.00 0.23 0.00 98 1012.5
20260507104003 3 0 0.0 0.0 0.00 0.23 0.00 98 1012.4
20260507103503 3 0 0.0 0.0 0.00 0.23 0.00 96 1012.5
20260507103005 3 0 0.0 0.0 0.00 0.23 0.00 96 1012.4
20260507102503 3 0 0.0 0.0 0.00 0.23 0.00 96 1012.3
20260507102003 3 0 0.0 0.0 0.00 0.23 0.00 96 1012.4
20260507101503 3 0 0.0 0.0 0.00 0.25 0.00 96 1012.4
20260507101005 3 0 0.0 0.0 0.00 0.25 0.00 96 1012.4
20260507100503 2 0 0.0 0.0 0.00 0.30 0.00 96 1012.4
20260507100214 2 0 0.0 0.0 0.00 0.30 0.00 96 1012.4
20260507095504 2 0 0.0 0.0 0.00 0.30 0.00 96 1012.4
20260507095213 2 0 0.0 0.0 0.00 0.33 0.00 96 1012.3
20260507094505 2 0 0.0 0.0 0.00 0.33 0.00 96 1012.3
20260507094003 2 0 0.0 0.0 0.00 0.36 0.00 95 1012.3
20260507093503 2 0 0.0 0.0 0.00 0.36 0.00 95 1012.3
20260507093003 2 352 0.0 4.8 0.00 0.38 0.00 95 1012.4
20260507092503 2 352 0.0 4.8 0.00 0.38 0.00 96 1012.4
20260507092213 3 352 0.0 4.8 0.00 0.38 0.00 96 1012.4
20260507091505 3 352 0.0 4.8 0.00 0.41 0.00 95 1012.4
20260507091003 3 352 0.0 4.8 0.00 0.41 0.00 95 1012.4
20260507090505 3 352 0.0 4.8 0.00 0.43 0.00 95 1012.4
20260507090004 3 352 0.0 4.8 0.00 0.46 0.00 95 1012.4
20260507085503 3 0 0.0 0.0 0.00 0.46 0.00 95 1012.5
20260507085003 3 0 0.0 0.0 0.00 0.51 0.00 95 1012.3
20260507084714 3 0 0.0 0.0 0.00 0.51 0.00 95 1012.3
20260507084003 3 0 0.0 0.0 0.00 0.53 0.00 95 1012.3
20260507083503 3 0 0.0 0.0 0.00 0.53 0.00 95 1012.3
20260507083004 3 0 0.0 0.0 0.00 0.56 0.00 95 1012.5
20260507082503 3 0 0.0 0.0 0.00 0.58 0.00 95 1012.3
20260507082005 3 0 0.0 0.0 0.00 0.58 0.00 95 1012.3
20260507081503 3 0 0.0 0.0 0.00 0.58 0.00 95 1012.4
20260507081003 3 0 0.0 0.0 0.00 0.61 0.00 95 1012.3
20260507080714 3 0 0.0 0.0 0.00 0.61 0.00 95 1012.3
20260507080005 3 0 0.0 0.0 0.00 0.64 0.00 95 1012.4
20260507075503 3 0 0.0 1.6 0.00 0.64 0.00 95 1012.4
20260507075003 3 352 0.0 4.8 0.00 0.64 0.00 95 1012.4
20260507074503 3 352 0.0 8.0 0.00 0.64 0.00 95 1012.2
20260507074003 3 352 0.0 8.0 0.00 0.66 0.00 95 1012.3
20260507073503 3 352 0.0 8.0 0.00 0.66 0.00 95 1012.3
20260507073003 3 0 0.0 0.0 0.00 0.71 0.00 95 1012.2
20260507072503 3 0 0.0 0.0 0.00 0.71 0.00 94 1012.0
20260507072004 3 0 0.0 0.0 0.00 0.71 0.00 95 1012.1
20260507071504 3 0 0.0 0.0 0.00 0.71 0.00 95 1012.3
20260507071212 4 0 0.0 0.0 0.00 0.74 0.00 94 1012.2
20260507070505 4 352 1.6 6.4 0.00 0.74 0.00 95 1012.2
20260507070006 4 352 3.2 6.4 0.00 0.76 0.00 95 1012.2
20260507065503 4 352 1.6 6.4 0.00 0.76 0.00 94 1012.2
20260507065004 4 352 0.0 6.4 0.00 0.79 0.00 95 1012.3
20260507064503 4 0 0.0 0.0 0.00 0.81 0.00 94 1012.5
20260507064003 5 0 0.0 0.0 0.00 0.81 0.00 94 1012.6
20260507063503 5 0 0.0 0.0 0.00 0.84 0.00 94 1012.7
20260507063003 5 0 0.0 0.0 0.00 0.84 0.00 94 1012.6
20260507062504 5 0 0.0 0.0 0.00 0.84 0.00 94 1012.7
20260507062214 5 0 0.0 0.0 0.00 0.84 0.00 94 1012.7
20260507061503 5 0 0.0 0.0 0.00 0.86 0.00 94 1012.8
20260507061005 5 0 0.0 0.0 0.00 0.86 0.00 94 1012.6
20260507060503 5 0 0.0 0.0 0.00 0.86 0.00 94 1012.6
20260507060003 5 0 0.0 0.0 0.00 0.86 0.00 94 1012.7
20260507055713 5 0 0.0 0.0 0.00 0.86 0.00 94 1012.7
20260507055005 5 0 0.0 0.0 0.00 0.91 0.00 94 1012.8
20260507054504 5 0 0.0 0.0 0.00 0.91 0.00 94 1012.9
20260507054214 5 0 0.0 0.0 0.00 0.94 0.00 94 1012.9
20260507053713 5 0 0.0 0.0 0.00 0.94 0.00 94 1012.8
20260507053003 5 0 0.0 0.0 0.00 0.97 0.00 94 1013.1
20260507052504 6 0 0.0 0.0 0.00 0.99 0.00 94 1013.0
20260507052005 6 0 0.0 0.0 0.00 0.99 0.00 94 1013.1
20260507051503 6 0 0.0 0.0 0.00 1.02 0.00 94 1013.1
20260507051003 6 0 0.0 0.0 0.00 1.04 0.00 94 1013.1
20260507050503 6 352 0.0 1.6 0.00 1.09 0.00 95 1013.0
20260507050006 6 352 0.0 4.8 0.00 1.12 0.00 95 1013.2
20260507045503 6 352 1.6 4.8 0.00 1.17 0.00 95 1013.2
20260507045216 6 352 1.6 4.8 0.00 1.17 0.00 95 1013.2
20260507044503 6 352 0.0 4.8 0.00 1.22 0.00 95 1013.2
20260507044003 6 352 1.6 4.8 0.00 1.24 0.00 95 1013.2
20260507043504 6 352 1.6 6.4 0.00 1.30 0.00 95 1013.2
20260507043003 6 352 1.6 6.4 0.00 1.35 0.00 95 1013.3
20260507042503 6 352 0.0 4.8 0.00 1.35 0.00 95 1013.2
20260507042004 6 352 1.6 4.8 0.00 1.37 0.00 95 1013.2
20260507041503 6 352 1.6 8.0 0.00 1.40 0.00 95 1013.1
20260507041004 6 352 1.6 8.0 0.00 1.40 0.00 95 1013.2
20260507040714 6 352 1.6 6.4 0.00 1.42 0.00 95 1013.2
20260507040003 6 352 1.6 8.0 0.00 1.42 0.00 95 1013.1
20260507035503 6 352 1.6 8.0 0.00 1.42 1.42 95 1013.1
20260507035213 6 352 0.0 8.0 0.00 1.45 1.42 95 1013.1
20260507034503 6 0 0.0 0.0 0.00 1.45 1.42 95 1013.1
20260507034003 6 355 0.0 4.8 0.00 1.45 1.42 95 1013.1
20260507033505 6 352 1.6 4.8 0.00 1.45 1.42 95 1013.1
20260507033005 6 352 1.6 6.4 0.00 1.45 1.42 95 1013.0
20260507032503 6 352 3.2 6.4 0.00 1.45 1.42 95 1012.9
20260507032003 6 352 1.6 8.0 0.00 1.45 1.42 95 1013.0
20260507031714 6 352 1.6 8.0 0.00 1.45 1.42 95 1013.0
20260507031215 6 352 1.6 4.8 0.00 1.50 1.42 95 1013.1
20260507030504 6 352 3.2 6.4 0.00 1.52 1.42 95 1013.1
20260507030003 6 352 1.6 6.4 0.00 1.52 1.42 95 1013.3
20260507025503 6 352 1.6 6.4 0.00 1.55 1.42 95 1013.2
20260507025215 6 352 1.6 6.4 0.00 1.57 1.42 95 1013.1
20260507024503 6 352 1.6 6.4 0.00 1.57 1.42 95 1013.0
20260507024003 6 352 0.0 1.6 0.00 1.60 1.42 95 1013.0
20260507023503 6 0 0.0 0.0 0.00 1.63 1.42 95 1013.0
20260507023005 6 352 0.0 1.6 0.00 1.63 1.42 95 1013.1
20260507022503 6 352 1.6 4.8 0.00 1.68 1.42 95 1013.1
20260507022003 6 352 1.6 4.8 0.00 1.68 1.42 95 1013.0
20260507021503 6 352 0.0 4.8 0.00 1.68 1.42 95 1013.1
20260507021003 6 352 0.0 4.8 0.00 1.68 1.42 95 1013.1
20260507020503 6 0 0.0 1.6 0.00 1.70 1.42 95 1013.2
20260507020004 6 352 1.6 4.8 0.00 1.70 1.42 95 1013.4
20260507015713 6 352 1.6 4.8 0.00 1.70 1.42 95 1013.5
20260507015004 6 352 1.6 6.4 0.00 1.70 1.42 94 1013.4
20260507014503 6 352 1.6 6.4 0.00 1.70 1.42 94 1013.5
20260507014003 6 352 1.6 6.4 0.00 1.70 1.42 94 1013.4
20260507013503 6 352 1.6 4.8 0.00 1.70 1.42 94 1013.3
20260507013003 6 352 1.6 4.8 0.00 1.70 1.42 94 1013.4
20260507012503 6 352 0.0 1.6 0.00 1.70 1.42 94 1013.3
20260507012005 6 352 0.0 1.6 0.00 1.73 1.42 94 1013.1
20260507011503 6 352 0.0 1.6 0.00 1.73 1.42 94 1013.1
20260507011005 6 352 0.0 4.8 0.00 1.73 1.42 94 1013.2
20260507010713 6 352 0.0 4.8 0.00 1.73 1.42 94 1013.2
20260507010004 6 0 0.0 0.0 0.00 1.75 1.42 94 1013.1
20260507005503 6 0 0.0 0.0 0.00 1.75 1.42 94 1012.9
20260507005214 6 0 0.0 0.0 0.00 1.75 1.42 94 1013.0
20260507004503 6 0 0.0 0.0 0.00 1.80 1.42 94 1012.9
20260507004005 6 0 0.0 0.0 0.00 1.80 1.42 94 1012.9
20260507003508 6 0 0.0 0.0 0.00 1.88 1.42 94 1012.9
20260507003005 6 0 0.0 0.0 0.00 1.91 1.42 95 1012.7
20260507002713 6 352 0.0 1.6 0.00 1.93 1.42 94 1012.7
20260507002005 6 352 0.0 4.8 0.00 1.98 1.42 94 1012.6
20260507001504 6 352 0.0 4.8 0.00 2.01 1.42 94 1012.5
20260507001003 6 352 1.6 4.8 0.00 2.03 1.42 94 1012.5
20260507000504 6 352 1.6 8.0 0.00 2.08 1.42 95 1012.5
20260507000214 6 352 1.6 8.0 0.00 2.11 1.42 95 1012.5
20260506235503 6 352 0.0 6.4 0.00 2.16 1.42 95 1012.4
20260506235214 6 352 0.0 4.8 0.00 2.18 1.42 95 1012.4
20260506234715 6 352 1.6 6.4 0.00 2.21 1.42 95 1012.4
20260506234214 6 352 1.6 6.4 0.00 2.29 1.42 95 1012.3
20260506233713 6 352 1.6 8.0 0.00 2.29 1.42 95 1012.3
20260506233005 6 352 1.6 8.0 0.00 2.34 1.42 95 1012.4
20260506232503 6 352 1.6 8.0 0.00 2.34 1.42 95 1012.4
20260506232003 6 352 3.2 8.0 0.00 2.39 1.42 95 1012.4
20260506231503 6 352 1.6 8.0 0.00 2.39 1.42 95 1012.3
20260506231003 6 352 3.2 8.0 0.00 2.41 1.42 95 1012.2
20260506230712 6 352 3.2 9.7 0.00 2.46 1.42 95 1012.2
20260506230003 6 353 4.8 9.7 0.00 2.49 1.42 95 1012.1
20260506225503 6 341 6.4 16.1 0.00 2.51 1.42 95 1011.9
20260506225003 6 332 6.4 19.3 0.00 2.51 1.42 95 1012.0
20260506224503 6 333 6.4 19.3 0.00 2.54 1.42 95 1011.9
20260506224005 5 337 8.0 19.3 0.00 2.54 1.42 95 1011.8
20260506223503 6 336 9.7 19.3 0.00 2.57 1.42 95 1011.6
20260506223003 6 344 9.7 19.3 0.00 2.59 1.42 95 1011.6
20260506222503 6 349 8.0 19.3 0.00 2.62 1.42 95 1011.6
20260506222003 6 336 9.7 20.9 0.00 2.62 1.42 95 1011.5
20260506221504 5 339 12.9 22.5 0.00 2.67 1.42 95 1011.5
20260506221003 6 344 12.9 22.5 0.00 2.69 1.42 95 1011.4
20260506220503 6 341 12.9 22.5 0.00 2.72 1.42 94 1011.4
20260506220005 6 337 11.3 22.5 0.00 2.74 1.42 95 1011.3
20260506215714 6 335 11.3 22.5 0.00 2.74 1.42 94 1011.3
20260506215213 6 333 11.3 27.4 0.00 2.77 1.42 94 1011.4
20260506214714 6 332 11.3 27.4 0.00 2.79 1.42 94 1011.3
20260506214213 6 327 8.0 22.5 0.00 2.84 1.42 94 1011.3
20260506213505 6 314 9.7 24.1 0.00 2.90 1.42 93 1011.2
20260506213215 6 310 11.3 27.4 0.00 2.92 1.42 93 1011.2
20260506212714 6 310 12.9 27.4 0.00 2.95 1.42 93 1011.1
20260506212213 6 315 14.5 29.0 0.00 3.00 1.42 93 1011.1
20260506211503 7 310 14.5 29.0 0.00 3.10 1.42 92 1010.8
20260506211006 7 297 16.1 35.4 0.00 3.15 1.42 91 1010.6
20260506210503 7 297 17.7 37.0 0.00 3.17 1.42 91 1010.6
20260506210003 8 300 17.7 37.0 0.00 3.20 1.42 90 1010.5
20260506205714 8 304 16.1 37.0 0.00 3.20 1.42 89 1010.5
20260506205003 9 304 14.5 37.0 0.00 3.25 1.42 88 1010.2
20260506204503 10 276 14.5 37.0 0.00 3.25 1.42 87 1010.2
20260506204003 10 230 16.1 35.4 0.00 3.28 1.42 86 1010.1
20260506203505 10 228 17.7 35.4 0.00 3.28 1.42 84 1010.0
20260506203003 10 231 17.7 37.0 0.00 3.28 1.42 84 1010.0
20260506202505 10 225 17.7 37.0 0.00 3.28 1.42 84 1010.0
20260506202004 10 225 16.1 35.4 0.00 3.28 1.42 84 1009.9
20260506201713 10 225 14.5 35.4 0.00 3.28 1.42 84 1009.9
20260506201003 10 232 9.7 24.1 0.00 3.28 1.42 86 1009.9
20260506200713 10 233 11.3 24.1 0.00 3.28 1.42 86 1010.0
20260506200005 10 236 8.0 19.3 0.00 3.28 1.42 87 1009.9
20260506195505 10 236 9.7 20.9 0.00 3.28 1.42 87 1009.9
20260506195003 10 233 11.3 20.9 0.00 3.28 1.42 87 1009.8
20260506194503 10 226 9.7 20.9 0.00 3.28 1.42 88 1009.9
20260506194003 10 203 6.4 20.9 0.00 3.28 1.42 89 1009.9
20260506193713 10 167 4.8 19.3 0.00 3.28 1.42 89 1009.9
20260506193003 10 126 3.2 8.0 0.00 3.28 1.42 89 1010.0
20260506192504 10 125 1.6 8.0 0.00 3.28 1.42 88 1009.8
20260506192003 10 117 1.6 8.0 0.00 3.28 1.42 88 1009.8
20260506191505 10 116 1.6 8.0 0.00 3.28 1.42 88 1009.8
20260506191003 10 0 0.0 0.0 0.00 3.28 1.42 88 1009.9
20260506190504 10 0 0.0 0.0 0.00 3.28 1.42 89 1009.8
20260506190004 10 92 0.0 1.6 0.00 3.28 1.42 89 1009.7
20260506185713 10 92 1.6 6.4 0.00 3.28 1.42 89 1009.7
20260506185005 10 91 1.6 6.4 0.00 3.28 1.42 90 1009.7
20260506184503 10 90 0.0 6.4 0.00 3.28 1.42 90 1009.7
20260506184003 10 90 1.6 6.4 0.00 3.28 1.42 91 1009.7
20260506183505 10 90 3.2 8.0 0.00 3.28 1.42 91 1009.7
20260506183004 10 90 3.2 8.0 0.00 3.28 1.42 91 1009.6
20260506182503 10 90 1.6 8.0 0.00 3.28 1.42 92 1009.8
20260506182003 10 90 0.0 6.4 0.00 3.28 1.42 92 1009.8
20260506181713 10 90 1.6 6.4 0.00 3.28 1.42 92 1009.8
20260506181005 9 90 1.6 6.4 0.00 3.28 1.42 93 1009.8
20260506180503 10 90 3.2 6.4 0.00 3.28 1.42 94 1009.9
20260506180004 9 90 1.6 6.4 0.00 3.28 1.42 94 1010.1
20260506175505 9 86 0.0 1.6 0.00 3.28 1.42 94 1009.9
20260506175213 9 86 0.0 1.6 0.00 3.28 1.42 94 1009.9
20260506174714 9 86 0.0 6.4 0.00 3.28 1.42 94 1009.8
20260506174003 9 86 0.0 4.8 0.00 3.28 1.42 95 1010.0
20260506173505 8 86 1.6 6.4 0.00 3.28 1.42 95 1010.1
20260506173005 8 86 3.2 8.0 0.00 3.28 1.42 95 1010.0
20260506172503 8 85 3.2 8.0 0.00 3.28 1.42 95 1010.0
20260506172003 8 84 1.6 8.0 0.00 3.28 1.42 95 1010.0
20260506171505 8 84 0.0 4.8 0.00 3.28 1.42 95 1009.9
20260506171215 8 84 0.0 4.8 0.00 3.28 1.42 95 1009.9
20260506170503 8 84 1.6 6.4 0.00 3.28 1.42 96 1010.0
20260506170003 8 84 1.6 8.0 0.00 3.28 1.42 96 1010.1
20260506165503 8 85 1.6 8.0 0.00 3.28 1.42 96 1010.1
20260506165005 8 85 0.0 4.8 0.00 3.28 1.42 96 1009.9
20260506164503 8 85 0.0 4.8 0.00 3.28 1.42 96 1009.9
20260506164003 8 85 1.6 4.8 0.00 3.28 1.42 96 1009.9
20260506163503 8 85 3.2 8.0 0.00 3.28 1.42 98 1009.9
20260506163213 8 85 3.2 8.0 0.00 3.28 1.42 98 1009.8
20260506162714 8 85 1.6 8.0 0.00 3.28 1.42 98 1009.6
20260506162003 8 0 0.0 0.0 0.00 3.28 1.42 98 1009.7
20260506161503 8 86 1.6 4.8 0.00 3.28 1.42 98 1009.9
20260506161005 8 86 3.2 12.9 0.00 3.28 1.42 98 1009.8
20260506160505 8 86 3.2 12.9 0.00 3.28 1.42 98 1009.9
20260506160003 8 87 0.0 6.4 0.00 3.28 1.42 98 1009.8
20260506155503 8 87 0.0 4.8 0.00 3.28 1.42 98 1009.6
20260506155003 8 87 1.6 6.4 0.00 3.28 1.42 98 1009.8
20260506154503 8 87 3.2 6.4 0.00 3.28 1.42 99 1009.7
20260506154213 8 87 3.2 6.4 0.00 3.28 1.42 99 1009.7
20260506153503 8 87 1.6 6.4 0.00 3.28 1.42 99 1009.7
20260506153215 8 87 0.0 4.8 0.00 3.28 1.42 99 1009.7
20260506152505 8 87 1.6 6.4 0.00 3.28 1.42 99 1009.6
20260506152213 8 87 3.2 8.0 0.00 3.28 1.42 99 1009.5
20260506151716 8 87 3.2 8.0 0.00 3.28 1.42 99 1009.5
20260506151003 8 88 3.2 8.0 0.03 3.28 1.42 99 1009.4
20260506150503 7 88 1.6 8.0 0.03 3.28 1.42 99 1009.4
20260506150003 7 88 3.2 8.0 0.03 3.28 1.42 99 1009.5
20260506145503 7 89 3.2 8.0 0.05 3.28 1.42 99 1009.5
20260506145005 7 89 4.8 8.0 0.05 3.28 1.42 99 1009.4
20260506144503 7 89 4.8 12.9 0.05 3.28 1.42 99 1009.3
20260506144214 7 89 4.8 12.9 0.05 3.28 1.42 99 1009.2
20260506143503 7 88 3.2 8.0 0.05 3.28 1.42 99 1009.2
20260506143003 7 88 1.6 8.0 0.05 3.28 1.42 100 1009.2
20260506142713 7 88 1.6 6.4 0.05 3.28 1.42 99 1009.3
20260506142003 7 88 3.2 6.4 0.05 3.28 1.42 99 1009.5
20260506141504 7 89 3.2 12.9 0.05 3.28 1.42 99 1009.4
20260506141003 7 90 3.2 12.9 0.03 3.25 1.40 99 1009.3
20260506140715 7 90 3.2 8.0 0.03 3.25 1.40 99 1009.2
20260506140003 7 90 1.6 6.4 0.03 3.25 1.40 99 1009.3
20260506135503 7 90 1.6 8.0 0.00 3.20 1.37 99 1009.2
20260506135003 7 91 3.2 8.0 0.00 3.20 1.37 99 1009.1
20260506134503 7 92 3.2 6.4 0.00 3.20 1.37 99 1009.1
20260506134005 7 92 3.2 6.4 0.03 3.20 1.37 99 1008.9
20260506133503 7 92 3.2 6.4 0.03 3.20 1.37 99 1008.8
20260506133003 7 92 3.2 8.0 0.03 3.20 1.37 99 1008.9
20260506132713 7 92 3.2 8.0 0.03 3.20 1.37 99 1008.9
20260506132005 7 92 3.2 8.0 0.05 3.20 1.37 99 1008.8
20260506131503 7 92 4.8 8.0 0.05 3.20 1.37 99 1008.8
20260506131214 7 92 4.8 12.9 0.05 3.20 1.37 99 1008.8
20260506130713 7 91 4.8 12.9 0.05 3.20 1.37 100 1008.7
20260506130004 7 90 4.8 14.5 0.05 3.20 1.37 99 1008.7
20260506125505 6 92 1.6 12.9 0.05 3.20 1.37 99 1008.6
20260506125004 6 92 3.2 6.4 0.05 3.20 1.37 99 1008.6
20260506124503 6 92 3.2 12.9 0.08 3.20 1.37 99 1008.6
20260506124003 6 89 4.8 12.9 0.05 3.17 1.35 99 1008.5
20260506123503 6 85 6.4 19.3 0.05 3.17 1.35 99 1008.7
20260506123003 6 91 6.4 19.3 0.05 3.17 1.35 99 1008.7
20260506122503 6 99 6.4 19.3 0.05 3.15 1.32 99 1008.5
20260506122003 6 98 6.4 12.9 0.05 3.15 1.32 99 1008.4
20260506121505 6 97 4.8 16.1 0.05 3.15 1.32 99 1008.4
20260506121003 6 96 6.4 16.1 0.05 3.15 1.32 99 1008.4
20260506120503 6 93 6.4 16.1 0.08 3.15 1.32 99 1008.3
20260506120005 6 90 6.4 16.1 0.08 3.15 1.32 99 1008.3
20260506115504 6 88 4.8 16.1 0.08 3.15 1.32 99 1008.2
20260506115213 6 88 4.8 12.9 0.08 3.15 1.32 99 1008.2
20260506114714 6 87 4.8 16.1 0.13 3.15 1.32 99 1008.2
20260506114003 6 87 6.4 16.1 0.08 3.12 1.30 99 1008.2
20260506113714 6 88 4.8 16.1 0.08 3.12 1.30 99 1008.2